Location: Ergnies
(50.0854°N, 2.0375°E)
Time: 20:40:54
(UTC+00:00)

USA 307 - Pass Details

Date: 14 January 2026
Orbit: 495 x 502 km, 54.0° (Epoch: 10 March)

Event Time Altitude Azimuth Distance (km) Brightness Sun altitude
Exits shadow 05:56:16 34° 313° (NW) 844 3.3 -16.9°
Maximum altitude 05:57:42 55° 13° (NNE) 614 3.0 -16.7°
Drops below altitude 10° 06:01:34 10° 92° (E) 1,668 6.5 -16.1°
Sets 06:03:42 0° 97° (E) 2,478 7.9 -15.7°
